EHI
0 0 0 0 0 0 0 0 0 0 0 0 0 0 0 0 0 0 0 0 0 0 0 0 0 0 0 0 2 12 33 61 79 84 77 61 35 18
0 0 0 0 0 0 0 0 0 0 0 0 0 0 0 0 0 0 0 0 0 0 0 0 0 0 0 0 4 17 34 49 59 61 53 38 22 12
0 0 0 0 0 0 0 0 0 0 0 0 0 0 0 0 0 0 0 0 0 0 0 0 0 0 0 1 5 12 18 20 23 25 20 12 6 4
0 0 0 0 0 0 0 0 0 0 0 0 0 0 0 0 0 0 0 0 0 0 0 0 0 0 0 0 2 2 2 1 2 3 3 2 0 0
0 0 0 0 0 0 0 0 0 0 0 0 0 0 0 0 0 0 0 0 0 0 0 0 0 0 0 0 0 0 0 0 0 0 0 0 0 0
0 0 0 0 0 0 0 0 0 0 0 0 0 0 0 0 0 0 0 0 0 0 0 0 0 0 0 0 0 0 0 0 0 0 0 0 0 0
0 0 0 0 0 0 0 0 0 0 0 0 0 0 0 0 0 0 0 0 0 0 0 0 0 0 0 0 0 0 0 0 0 0 0 0 0 0
0 0 0 0 0 0 0 0 0 0 0 0 0 0 0 0 0 0 0 0 0 0 0 0 0 0 0 0 0 0 0 0 0 0 0 0 0 0
0 0 0 0 0 0 0 0 0 0 0 0 0 0 0 0 0 0 0 0 0 0 0 0 0 0 0 0 0 0 0 0 0 0 0 0 0 0
0 0 0 0 0 0 0 0 0 0 0 0 0 0 0 0 0 0 0 0 0 0 0 0 0 0 0 0 0 0 0 0 0 0 0 0 0 0
0 0 0 0 0 0 0 0 0 0 0 0 0 0 0 0 0 0 0 0 0 0 0 0 0 0 0 0 0 0 0 0 0 0 0 0 0 0
0 0 0 0 0 0 0 0 0 0 0 0 0 0 0 0 0 0 0 0 0 0 0 0 0 0 0 0 0 0 0 0 0 0 0 0 0 0
0 0 0 0 0 0 0 0 0 0 0 0 0 0 0 0 0 0 0 0 0 0 0 0 0 0 0 0 0 0 0 0 0 0 0 0 0 0
0 0 0 0 0 0 0 0 0 0 0 0 0 0 0 0 0 0 0 0 0 0 0 0 0 0 0 0 0 0 0 0 0 0 0 0 0 0
0 0 0 0 0 0 0 0 0 0 0 0 0 0 0 0 0 0 0 0 0 0 0 0 0 0 0 0 0 0 0 0 0 0 0 0 0 0
0 0 0 0 0 0 0 0 0 0 0 0 0 0 0 0 0 0 0 0 0 0 0 0 0 0 0 0 0 0 0 0 0 0 0 0 0 0
0 0 0 0 0 0 0 0 0 0 0 0 0 0 0 0 0 0 0 0 0 0 0 0 0 0 0 0 0 0 0 0 0 0 0 0 0 0
0 0 0 0 0 0 0 0 0 0 0 0 0 0 0 0 0 0 0 0 0 0 0 0 0 0 0 0 0 0 0 0 0 0 0 0 0 0
0 0 0 0 0 0 0 0 0 0 0 0 0 0 0 0 0 0 0 0 0 0 0 0 0 0 0 0 0 0 0 0 0 0 0 0 0 0
0 0 0 0 0 0 0 0 0 0 0 0 0 0 0 0 0 0 0 0 0 0 0 0 0 0 0 0 0 0 0 0 0 0 0 0 0 0
0 0 0 0 0 0 0 0 0 0 0 0 0 0 0 0 0 0 0 0 0 0 0 0 0 0 0 0 0 0 0 0 0 0 0 0 0 0
0 0 0 0 0 0 0 0 0 0 0 0 0 0 0 0 0 0 0 0 0 0 0 0 0 0 0 0 0 0 0 0 0 0 0 0 0 0
0 0 0 0 0 0 0 0 0 0 0 0 0 0 0 0 0 0 0 0 0 0 0 0 0 0 0 0 0 0 0 0 0 0 0 0 0 0
Wind_Speed
12 14 13 11 11 10 9 11 12 12 13 17 12 7 5 4 1 2 4 7 8 11 18 22 23 21 23 23 19 17 19 20 19 22 23 24 25 25
9 11 11 9 8 8 9 9 10 11 13 14 11 8 6 5 2 6 5 6 7 11 20 25 24 18 14 17 14 17 20 20 20 18 18 21 25 27
11 11 12 12 9 8 9 9 9 9 11 11 10 8 7 3 3 6 5 3 5 13 20 25 27 27 11 14 19 23 19 17 19 19 22 25 26 25
13 12 13 11 10 10 9 9 9 9 9 10 8 8 7 3 4 7 6 4 5 14 20 27 32 32 20 23 20 18 16 17 23 23 24 25 25 25
12 12 12 12 11 10 10 9 9 8 7 8 8 5 2 3 6 7 7 5 7 11 16 24 32 34 28 26 29 25 23 22 23 24 24 26 28 27
14 9 11 12 12 13 11 10 9 9 8 8 7 4 2 4 6 7 7 6 7 8 13 17 24 26 28 26 29 29 29 30 31 29 28 30 30 29
11 8 11 15 20 17 14 10 9 8 8 7 6 5 4 7 6 5 9 7 8 8 8 11 13 13 17 20 23 27 29 31 32 32 31 30 30 29
10 9 12 15 17 21 23 21 17 12 9 8 7 5 7 8 8 7 9 5 5 5 7 11 12 12 12 14 24 28 28 29 30 30 29 28 28 28
10 10 10 11 16 15 19 21 18 17 13 8 7 7 9 10 11 8 7 8 7 5 7 12 11 12 12 15 25 27 27 28 29 29 29 29 29 26
8 10 11 12 14 17 15 11 9 8 9 7 4 7 9 11 11 12 13 13 11 7 6 12 12 13 13 16 25 26 27 28 28 28 28 27 25 21
8 10 12 13 17 20 13 9 2 5 7 9 12 14 16 19 18 14 12 13 11 8 7 11 13 14 14 14 17 24 26 25 24 24 24 23 21 19
9 10 15 18 18 17 12 10 7 5 10 13 16 17 16 17 17 13 12 12 13 9 7 10 13 11 12 10 10 12 16 19 18 17 15 11 8 11
10 9 11 20 16 14 12 10 10 8 12 13 12 11 10 10 11 9 8 9 11 9 12 11 10 8 7 9 9 9 10 11 10 10 12 14 14 10
9 8 12 18 13 11 10 12 13 9 7 9 10 9 9 9 10 11 10 9 10 14 16 13 12 13 11 10 7 7 8 8 8 8 8 9 13 14
10 14 17 15 12 7 10 13 11 7 7 8 9 9 9 11 13 13 13 13 12 10 9 11 12 13 11 9 8 10 9 7 8 8 7 7 9 9
12 13 15 12 12 9 6 8 7 8 8 8 9 10 11 11 11 12 11 10 9 8 10 12 12 13 12 12 11 10 9 7 8 8 6 6 7 7
11 8 9 9 9 8 6 7 7 8 9 8 8 9 10 10 10 10 10 10 11 11 11 11 11 11 11 12 12 10 10 9 9 9 8 8 7 8
8 8 8 9 8 9 7 6 7 8 8 8 8 9 9 10 11 10 11 10 11 13 12 11 12 12 11 12 12 11 10 9 8 10 12 11 11 12
9 8 8 8 8 8 7 5 6 8 8 7 8 8 9 9 10 10 11 12 12 13 12 12 11 12 13 14 13 11 11 11 10 10 11 11 10 10
9 9 8 8 8 8 7 5 5 7 8 7 7 8 9 9 9 11 11 12 13 14 13 10 8 10 12 13 13 10 10 9 12 12 10 10 11 12
8 8 8 7 8 7 7 6 4 8 9 7 8 8 8 8 8 11 11 11 12 12 10 8 9 12 12 13 12 11 14 17 14 9 8 10 10 8
8 7 7 7 7 7 7 6 5 5 9 8 7 7 7 7 8 11 12 11 10 10 10 11 13 12 12 11 10 12 12 12 13 15 12 9 4 6
7 7 7 6 6 7 7 6 5 4 4 9 8 7 7 6 7 8 9 11 11 11 12 12 12 13 12 12 10 9 11 11 10 11 11 10 13 17
Wind_Direction
287 286 286 283 280 279 270 263 266 271 274 279 281 272 279 300 321 333 77 65 35 13 5 349 325 301 256 234 228 229 206 174 167 160 154 149 147 145
283 286 287 285 281 275 268 261 254 257 265 271 279 272 259 230 162 110 110 86 52 29 24 8 351 335 259 215 218 166 142 148 147 150 152 146 133 129
294 290 287 285 279 272 265 259 256 251 258 259 262 274 289 282 109 103 85 63 37 33 34 23 14 10 3 165 138 125 135 141 139 138 133 122 119 121
296 292 284 281 274 269 263 260 258 253 253 260 265 275 268 200 145 113 88 49 31 38 39 37 26 20 34 82 97 99 105 114 114 116 115 112 113 113
284 290 298 292 280 275 267 256 251 250 248 250 252 252 214 152 127 106 78 45 21 34 40 43 39 24 28 56 69 71 78 84 89 94 98 99 98 98
289 288 291 293 283 278 276 266 249 236 233 238 237 225 171 141 137 119 95 62 41 29 37 45 46 32 30 42 61 66 71 71 72 73 80 85 88 90
302 311 294 293 295 298 296 284 264 235 220 219 220 204 166 154 141 127 112 98 54 28 44 46 47 37 23 34 51 61 70 74 75 74 72 76 82 85
314 318 309 305 306 305 300 289 274 250 219 208 214 191 160 148 132 143 131 121 79 29 59 58 56 56 41 41 56 63 70 77 81 82 83 82 81 81
329 329 314 316 312 307 300 286 267 247 224 211 213 172 159 147 136 133 107 94 98 93 80 73 64 69 60 57 63 69 74 78 82 83 82 79 76 77
355 331 324 321 319 321 309 288 247 217 202 201 201 159 145 138 125 114 107 102 94 90 84 88 81 76 71 64 63 66 69 72 76 78 80 82 85 89
346 341 337 328 328 332 332 329 249 155 130 109 97 107 119 123 122 118 118 116 106 93 92 103 100 91 78 72 68 70 72 76 82 87 92 97 101 99
344 347 340 333 332 345 356 1 25 92 107 93 91 93 102 110 112 116 126 122 123 118 122 114 112 102 89 86 87 84 80 79 79 80 80 82 114 117
349 342 334 331 339 353 10 23 26 64 99 101 102 101 100 99 100 100 108 120 127 119 133 130 120 92 85 96 86 88 99 104 101 96 79 56 54 88
355 343 332 333 351 13 25 32 31 46 86 100 103 102 102 101 100 99 100 96 110 129 144 143 126 120 111 102 96 103 100 104 110 106 102 92 80 67
359 351 343 344 356 28 42 42 39 44 69 87 95 97 99 102 100 99 101 109 116 126 127 120 118 125 117 108 112 115 112 112 116 116 122 119 115 113
355 352 351 354 6 11 52 68 64 59 63 78 89 96 99 101 102 110 114 118 119 122 119 116 120 122 121 123 120 117 117 116 115 100 96 88 84 84
348 359 358 3 4 360 37 75 78 79 75 77 85 94 99 103 106 114 116 114 110 108 109 110 113 105 104 112 112 107 114 115 112 116 107 101 102 100
359 14 2 2 4 1 13 63 80 88 89 91 94 98 105 112 119 121 120 117 117 116 112 113 112 109 102 89 94 114 117 126 140 140 130 114 95 82
8 23 9 360 1 1 358 24 77 88 95 96 104 110 115 121 124 124 123 123 122 123 126 134 136 130 120 112 95 92 126 142 142 119 101 96 98 95
8 10 12 2 359 360 358 15 82 96 95 98 98 108 119 122 125 127 128 132 134 131 130 135 131 128 128 125 120 78 42 113 104 97 104 108 101 102
2 3 6 0 357 358 358 15 66 100 108 97 89 95 103 114 122 122 122 122 121 117 114 111 114 123 119 118 115 98 65 62 84 113 136 136 137 156
359 359 359 359 357 360 5 19 52 87 117 116 104 100 104 107 113 121 124 121 108 105 113 121 126 126 121 120 119 117 114 101 85 78 59 48 82 132
357 354 351 352 356 0 9 17 39 76 92 117 120 116 116 119 125 127 123 122 124 128 140 145 138 131 124 120 123 127 129 130 128 104 78 57 73 78